Home   Weather   Brazzaville   Past weeks

Flag for Congo Past Weather in Brazzaville, Congo — Yesterday and Last 2 Weeks

Now
82 °F

Passing clouds.


Feels Like: 88 °F
Forecast: 70 / 82 °F
Wind: No wind

Location: Brazzaville / Maya-Maya

Current Time: Dec 5, 2016 at 5:42:47 pm

Latest Report: Dec 5, 2016 at 5:00 pm


Visibility: N/A

Pressure: 29.83 "Hg

Humidity: 74%

Dew Point: 73 °F

Location of BrazzavilleLocation

Past Weather in Brazzaville — Graph

°F

Brazzaville Temperature Yesterday

Maximum temperature yesterday: 84 °F (at 3:00 pm)
Minimum temperature yesterday: 72 °F (at 12:00 am)
Average temperature yesterday: 77 °F

High & Low Weather Summary for the Past Weeks

 TemperatureHumidityPressure
High93 °F (Nov 25, 1:00 pm)100% (Nov 26, 9:00 pm)30.01 "Hg (Nov 26, 9:00 pm)
Low70 °F (Dec 3, 4:00 am)46% (Nov 23, 5:00 pm)29.71 "Hg (Nov 27, 4:00 pm)
Average79 °F80%29.89 "Hg
* Reported Nov 20 4:00 pm — Dec 5 4:00 pm, Brazzaville, Weather by CustomWeather, © 2016

Note: Actual official high and low records may vary slightly from our data, if they occured in-between our weather recording intervals... More about our weather records

Advertising

Brazzaville Weather History for the Previous 24 Hours

Scroll right to see more
 ConditionsComfort  
Time TempWeatherWind HumidityBarometerVisibility
4:00 pm
Mon, Dec 5
84 °FPassing clouds.No wind66%29.83 "HgN/A
3:00 pm84 °FScattered clouds.8 mph66%29.83 "HgN/A
2:00 pm86 °FScattered clouds.10 mph62%29.86 "HgN/A
1:00 pm84 °FPartly sunny.13 mph74%29.89 "HgN/A
12:00 pm84 °FPartly sunny.7 mph70%29.92 "HgN/A
11:00 am84 °FPartly sunny.5 mph70%29.98 "HgN/A
10:00 am81 °FPartly sunny.5 mph79%29.98 "HgN/A
9:00 am77 °FPartly sunny.5 mph89%29.98 "HgN/A
8:00 am75 °FLight rain. Scattered clouds.3 mph89%29.98 "HgN/A
7:00 am73 °FScattered clouds.2 mph94%29.98 "HgN/A
6:00 am73 °FBroken clouds.6 mph94%29.95 "HgN/A
5:00 am73 °FPassing clouds.5 mph94%29.95 "Hg6 mi
4:00 am73 °FPassing clouds.3 mph94%29.95 "Hg5 mi
3:00 am73 °FLight rain. Passing clouds.3 mph94%29.95 "Hg5 mi
2:00 am73 °FLight rain. Passing clouds.7 mph94%29.95 "Hg4 mi
1:00 am75 °FLight rain. Passing clouds.3 mph89%29.95 "HgN/A
12:00 am75 °FPassing clouds.3 mph89%29.95 "HgN/A
11:00 pm
Sun, Dec 4
75 °FPassing clouds.6 mph94%29.95 "HgN/A
10:00 pm77 °FClear.5 mph89%29.95 "Hg10 mi
9:00 pm77 °FPassing clouds.5 mph83%29.92 "HgN/A
8:00 pm79 °FPassing clouds.No wind84%29.89 "HgN/A
7:00 pm81 °FPassing clouds.No wind79%29.86 "HgN/A
6:00 pm81 °FPassing clouds.1 mph74%29.83 "HgN/A
5:00 pm82 °FPassing clouds.5 mph70%29.80 "HgN/A
Weather by CustomWeather, © 2016

See weather overviewHow to use our weather pages